TimeEDT,TemperatureF,Dew PointF,Humidity,Sea Level PressureIn,VisibilityMPH,Wind Direction,Wind SpeedMPH,Gust SpeedMPH,PrecipitationIn,Events,Conditions,WindDirDegrees,DateUTC
12:53 AM,69.1,66.0,90,30.15,5.0,Calm,Calm,-,N/A,,Clear,0,2013-08-27 04:53:00
1:53 AM,68.0,64.9,90,30.14,4.0,Calm,Calm,-,N/A,,Clear,0,2013-08-27 05:53:00
2:53 AM,66.9,64.9,93,30.13,5.0,Calm,Calm,-,N/A,,Clear,0,2013-08-27 06:53:00
3:53 AM,66.9,64.0,90,30.13,5.0,Calm,Calm,-,N/A,,Clear,0,2013-08-27 07:53:00
4:53 AM,66.9,64.0,90,30.12,6.0,Calm,Calm,-,N/A,,Clear,0,2013-08-27 08:53:00
5:53 AM,66.0,63.0,90,30.13,4.0,Calm,Calm,-,N/A,,Clear,0,2013-08-27 09:53:00
6:53 AM,66.0,63.0,90,30.13,6.0,Calm,Calm,-,N/A,,Mostly Cloudy,0,2013-08-27 10:53:00
7:53 AM,66.9,64.0,90,30.14,5.0,Calm,Calm,-,0.01,,Mostly Cloudy,0,2013-08-27 11:53:00
8:53 AM,70.0,66.0,87,30.14,9.0,Calm,Calm,-,N/A,,Mostly Cloudy,0,2013-08-27 12:53:00
9:53 AM,73.0,66.0,79,30.14,10.0,West,3.5,-,N/A,,Scattered Clouds,260,2013-08-27 13:53:00
10:53 AM,75.0,66.9,76,30.14,10.0,West,5.8,-,N/A,,Overcast,280,2013-08-27 14:53:00
11:53 AM,77.0,68.0,74,30.14,10.0,West,4.6,-,N/A,,Mostly Cloudy,280,2013-08-27 15:53:00
12:53 PM,82.0,70.0,67,30.12,10.0,WNW,5.8,-,N/A,,Mostly Cloudy,290,2013-08-27 16:53:00
1:13 PM,82.4,69.8,66,30.15,10.0,WSW,3.5,-,N/A,,Scattered Clouds,250,2013-08-27 17:13:00
1:53 PM,82.9,69.1,63,30.09,10.0,NNW,5.8,-,N/A,,Mostly Cloudy,340,2013-08-27 17:53:00
2:53 PM,86.0,68.0,55,30.07,10.0,Calm,Calm,-,N/A,,Scattered Clouds,0,2013-08-27 18:53:00
3:53 PM,84.9,68.0,57,30.06,10.0,WSW,8.1,-,N/A,,Mostly Cloudy,240,2013-08-27 19:53:00
4:53 PM,84.9,68.0,57,30.04,10.0,West,9.2,-,N/A,,Scattered Clouds,260,2013-08-27 20:53:00
5:53 PM,86.0,68.0,55,30.04,10.0,West,9.2,-,N/A,,Scattered Clouds,270,2013-08-27 21:53:00
6:53 PM,84.9,68.0,57,30.03,10.0,WSW,4.6,-,N/A,,Clear,250,2013-08-27 22:53:00
7:53 PM,82.0,69.1,65,30.04,10.0,WSW,5.8,-,N/A,,Clear,250,2013-08-27 23:53:00
8:53 PM,80.1,69.1,69,30.04,10.0,WSW,4.6,-,N/A,,Clear,240,2013-08-28 00:53:00
9:53 PM,78.1,70.0,76,30.05,10.0,West,3.5,-,N/A,,Clear,260,2013-08-28 01:53:00
10:53 PM,77.0,69.1,76,30.06,9.0,Calm,Calm,-,N/A,,Clear,0,2013-08-28 02:53:00
11:53 PM,75.0,69.1,82,30.06,8.0,Calm,Calm,-,N/A,,Clear,0,2013-08-28 03:53:00